sat.trackr.live / text

‹ back to catalog

STARLINK-32526

NORAD 62162 · 2024-224Z

PAYLOAD ACTIVE UNKNOWN

§ Identity

Operator
Country
US
Launch date
2024-11-30
Launch site
AFETR
Launch vehicle
Mass (kg)
RCS (m²)

Purposes: comms

External: N2YO · Heavens-Above · Gunter

§ Orbital elements

Epoch: 2026-05-25T03:31:14.014272Z

Period
94.27 min
Inclination
43.0002°
Eccentricity
0.0001539
Mean motion
15.27588682 rev/d
Perigee alt
482.0 km
Apogee alt
484.1 km
Semi-major
6,861.2 km
B*
3.8649e-4
RAAN
89.7336°
Arg perigee
266.6787°
Mean anomaly
93.3888°
Rev number
8,412

§ Raw data

STARLINK-325261 62162U 24224Z   26145.14668998  .00010391  00000+0  38649-3 0  99962 62162  43.0002  89.7336 0001539 266.6787  93.3888 15.27588682 84120

JSON: /api/v1/satellites/62162 · /tle

For live sub-satellite position, see the globe view (requires WebGL).

§ Visibility from observer

Set your observer location to see the next 7 days of passes ≥ 10°. The values pass through the URL so the page stays shareable.

No JS? Fill the form by hand. The geolocation button needs JavaScript.